Free Severe Weather Alerts by Email and Text Message   

 
Follow iAlert.com on twitter @ialertcom
Search For Active Alerts in Your Area  
  Hi Guest:  [ Sign-up / Services ] [ Login ]

Current weather by "City, St" or "zip code"  

 

Advertise Here

Hazardous Weather Conditions

No active alerts for SAN ANTONIO, TEXAS

Current Conditions: SAN ANTONIO, TEXAS

Mostly Cloudy


76.0 F

Last Updated on Aug 19 2017, 5:55 am CDT
Humidity: 90%
Wind Speed: N 0.0 mph
Barometer 30.03 in
Dewpoint: 73.0 F
Visibility: 10.00 mi
Precip: --
Heat Index: NA
Wind Chill: NA
Current conditions at:

Castroville Municipal Airport, TX (KCVB)

Lat: 29.34 Lon: -98.850

Local Radar Image active severe weather and emergency alerts image image weather storm and storm spotter reports image weather observation monitoring service image
Local
Radar
Active
Alerts
Storm Reports Weather
Monitoring

Weather Alert Notification Services


ialert severe weather and emergency alerts by text message and email ialert daily weather forecast by email and text message service ialert real-time weather-observation monitoring and alert notification service ialert storm report monitoring alert notification

Observation History for SAN ANTONIO, TEXAS


Time Wind
(mph)
Vis
(mi)
Weather Precip (in) Temperature (F) Relative
Humidity
Wind
Chill
(°F)
Heat
Index
(°F)
Pressure
Air Dwpt altimeter
(in)
sea level
(mb)
5:55 am CDT N 0.0 10.00 Mostly Cloudy -- 76.0 73.0 90% NA NA 30.03 M
4:55 am CDT N 0.0 10.00 Mostly Cloudy -- 76.0 70.3 82% NA NA 30.02 M
4:35 am CDT N 0.0 10.00 Overcast -- 77.0 70.5 80% NA NA 30.02 M
3:55 am CDT N 0.0 10.00 Partly Cloudy -- 77.0 69.6 79% NA NA 30.03 M
2:55 am CDT S 4.6 10.00 Fair -- 78.0 69.4 75% NA NA 30.03 M
2:35 am CDT S 4.6 10.00 Fair -- 78.0 69.8 75% NA NA 30.03 M
1:55 am CDT S 6.9 7.00 Fair -- 80.0 69.6 72% NA 83 30.03 M
1:35 am CDT S 8.1 10.00 Fair -- 80.0 69.8 71% NA 83 30.04 M
12:55 am CDT SE 8.1 10.00 Fair -- 82.0 69.3 67% NA 86 30.05 M
12:35 am CDT SE 8.1 10.00 Fair -- 82.0 68.5 64% NA 85 30.05 M
11:55 pm CDT SE 11.5 5.00 Fair with Haze -- 83.0 67.5 59% NA 86 30.05 M
10:55 pm CDT SE 12.7 10.00 Fair -- 86.0 68.0 55% NA 89 30.02 M
9:55 pm CDT SE 9.2 10.00 Fair -- 88.0 65.1 47% NA 90 29.99 M
9:35 pm CDT SE 3.5 7.00 Fair -- 88.0 64.4 45% NA 89 29.98 M
8:55 pm CDT E 4.6 7.00 Fair -- 90.0 64.4 43% NA 92 29.97 M
8:35 pm CDT E 4.6 10.00 Fair -- 91.0 64.0 42% NA 93 29.97 M
7:55 pm CDT E 4.6 10.00 Fair -- 94.0 62.8 36% NA 95 29.96 M
6:55 pm CDT E 10.4 10.00 Fair -- 97.0 61.9 32% NA 98 29.94 M
5:55 pm CDT E 8.1 7.00 Fair -- 98.0 63.1 32% NA 100 29.95 M
4:55 pm CDT SE 5.8 10.00 Fair -- 98.0 63.3 32% NA 100 29.96 M
3:55 pm CDT N 0.0 7.00 Fair -- 97.0 63.0 32% NA 98 29.97 M
3:35 pm CDT S 6.9 7.00 Fair -- 98.0 63.7 33% NA 100 29.98 M
2:55 pm CDT S 6.9 7.00 Partly Cloudy -- 97.0 65.8 36% NA 101 30.00 M
2:35 pm CDT N 0.0 7.00 Mostly Cloudy -- 94.0 66.2 40% NA 97 30.01 M

Regional Weather Observation:


San Antonio, San Antonio International Airport, TX (KSAT)

Mostly Cloudy
78.0 F

Kelly Air Force Base, TX (KSKF)

Partly Cloudy
77.0 F

San Antonio, Stinson Municipal Airport, TX (KSSF)

Overcast
78.0 F

Randolph Air Force Base, TX (KRND)

Mostly Cloudy
77.0 F

New Braunfels, New Braunfels Municipal Airport, TX (KBAZ)

A Few Clouds
75.0 F

Kerrville, Kerrville Municipal Airport/Louis Schreiner Field, TX (KERV)

Fair
73.0 F

Advertise Here


Advertise Here